Regional Weather Roundup
Issued by NWS

Home | Current Version | Previous Version | Graphics & Text | Print | Product List | Glossary On
Versions: 1 2 3 4 5 6 7 8 9 10 11 12 13 14 15 16 17 18 19 20 21 22 23 24 25 26 27 28 29 30 31 32 33 34 35 36 37 38 39 40 41 42 43 44 45 46 47 48 49 50
000
ASUS43 KDMX 290407
RWRIA

WEATHER ROUNDUP FOR IOWA
NATIONAL WEATHER SERVICE DES MOINES IA
1100 PM CDT THU AUG 28 2014

NOTE: "FAIR" INDICATES FEW OR NO CLOUDS BELOW 12,000 FEET WITH NO
SIGNIFICANT WEATHER AND/OR OBSTRUCTIONS TO VISIBILITY.

* - THESE STATIONS ARE NOT NWS STATIONS...THUS NOT UNDER NWS
QUALITY CONTROL.  THEY ALSO DO NOT REPORT WEATHER SUCH
AS PRECIPITATION OR FOG.

IAZ001>003-012>014-020>022-031>034-043>046-290500-
   NORTHWEST IOWA

CITY           SKY/WX    TMP DP  RH WIND       PRES   REMARKS
CARROLL *      PTCLDY    72  70  94 S7        29.89R
DENISON *      CLOUDY    73  72  94 S13G22    29.85S
LE MARS *      MOCLDY    73  72  94 SE8       29.85S
ORANGE CITY *  MOCLDY    73  70  88 SE3       29.84F
SHELDON *      CLOUDY    72  72 100 SE7       29.84F
SIOUX CITY     MOCLDY    73  71  93 S6        29.83F
SPENCER        CLOUDY    72  70  93 SE6       29.87S
STORM LAKE *   MOCLDY    73  73 100 S9        29.87S FOG
$$

IAZ055>058-069>071-079>083-090>094-290500-
   SOUTHWEST IOWA

CITY           SKY/WX    TMP DP  RH WIND       PRES   REMARKS
ATLANTIC *     LGT RAIN  70  66  88 SE13G24   29.88F
AUDUBON *      CLEAR     72  66  83 S12       29.92R
CLARINDA *     PTCLDY    72  72 100 CALM      29.90S
COUNCIL BLFS * PTCLDY    72  72 100 SE7       29.85F
CRESTON *        N/A     68  66  94 W8        29.95R
HARLAN  *      MOCLDY    70  68  94 SE7       29.92S
LAMONI         CLEAR     75  73  93 SE8       29.91R
RED OAK *      CLOUDY    72  68  88 CALM      29.88S
SHENANDOAH *   MOCLDY    73  72  94 NE6       29.88S
$$

IAZ047>049-059>061-072>074-084-290500-
   CENTRAL IOWA

CITY           SKY/WX    TMP DP  RH WIND       PRES   REMARKS
AMES           TSTM      66  66 100 E5        29.94R FOG
ANKENY *       DRIZZLE   72  68  88 SW20G26   29.95R
CHARITON *       N/A     72  70  94 SE9       29.92R
DES MOINES     TSTM      70  68  93 W15G28    29.94R VSB 3/4
GRINNELL*      CLOUDY    68  68 100 E9        29.94S FOG
KNOXVILLE *    CLOUDY    70  68  94 SE8       29.91S
MARSHALLTOWN   CLOUDY    70  68  93 SE12      29.92F
PELLA *        MOCLDY    70  70 100 SE7       29.93S FOG
PERRY *        RAIN      70  68  94 CALM      29.90S
$$

IAZ004>006-015-016-023>025-035-036-290500-
   NORTH CENTRAL IOWA

CITY           SKY/WX    TMP DP  RH WIND       PRES   REMARKS
ALGONA *       CLOUDY    72  72 100 S12G18    29.89S FOG
CLARION *      CLOUDY    72  72 100 SE10      29.90S
ESTHERVILLE    CLOUDY    68  68 100 SE3       29.87S FOG
FORT DODGE *   CLOUDY    72  70  94 S10G17    29.90R
MASON CITY     CLOUDY    69  68  96 S12       29.92F
FOREST CITY *  CLOUDY    70  70 100 SE12      29.90S FOG
IOWA FALLS *   CLOUDY    70  68  94 SE8       29.92F
$$

IAZ007>011-017>019-026>030-037>042-050>054-066-290500-
   NORTHEAST IOWA

CITY           SKY/WX    TMP DP  RH WIND       PRES   REMARKS
CEDAR RAPIDS   CLOUDY    69  69 100 SE7       29.96S FOG
CHARLES CITY * FOG       68  68 100 SE9       29.94F VSB 1
CLINTON *      MOCLDY    68  64  88 SE10      30.01S
DECORAH *      CLOUDY    66  66 100 S8        29.95F
DUBUQUE        MOCLDY    67  65  93 SE9       29.99S
MONTICELLO *   CLOUDY    68  68 100 SE6       29.98S
OELWEIN *      CLOUDY    68  68 100 SE13      29.96F
WATERLOO       CLOUDY    70  67  90 SE12      29.93F
$$

IAZ064-065-067-068-078-290500-
   EAST CENTRAL IOWA

CITY           SKY/WX    TMP DP  RH WIND       PRES   REMARKS
DAVENPORT      PTCLDY    69  66  90 SE10      29.99R
IOWA CITY      CLEAR     68  68 100 E5        29.97S
MT. PLEASANT * PTCLDY    70  70 100 SE8       29.97S
MUSCATINE *    PTCLDY    72  68  88 SE7G13    29.97S
QUAD CITIES    MOCLDY    70  67  90 SE7       29.98R
$$

IAZ062-063-075>077-085>089-095>099-290500-
   SOUTHEAST IOWA

CITY           SKY/WX    TMP DP  RH WIND       PRES   REMARKS
BURLINGTON     MOCLDY    71  69  93 SE7       29.97S
FAIRFIELD *    MOCLDY    70  68  94 SE12      29.95S
FORT MADISON * PTCLDY    72  72 100 SE8       29.99R
KEOKUK *       MOCLDY    72  68  88 SE13      29.97R
OSKALOOSA *      N/A     70  68  94 SE9       29.94R
CENTERVILLE *  CLEAR     72  72 100 SE9       29.95S
OTTUMWA        CLEAR     70  67  90 SE10      29.93S
WASHINGTON *   CLEAR     70  70 100 SE9       29.96S
$$

ABBREVIATIONS USED IN REMARKS
   TC - TEMPERATURES IN CELSIUS
  WCI - WIND CHILL INDEX
   HX - HEAT INDEX
  VSB - VISIBILITY
$$



USA.gov is the U.S. government's official web portal to all federal, state and local government web resources and services.